Location: Unspecified
(48.2082°N, 0.0000°E)
Time: 12:07:44
(UTC+00:00)

Vanguard 1 - Pass Details

Date: 30 June 2019
Orbit: 653 x 3830 km, 34.3° (Epoch: 22 July)

Event Time Altitude Azimuth Distance (km) Brightness Sun altitude
Rises 23:19:04 0° 219° (SW) 7,795 14.3 -17.9°
Reaches altitude 10° 23:24:56 10° 212° (SSW) 6,899 13.9 -18.1°
Maximum altitude 23:44:47 38° 155° (SSE) 4,617 12.9 -18.5°
Drops below altitude 10° 00:00:07 10° 95° (E) 5,429 13.8 -18.6°
Sets 00:03:59 0° 88° (E) 6,056 14.1 -18.7°
